GSAT-2

operational
NORAD ID: 27807 Int'l Des: 2003-018 Owner: ISRO Country: IN
HEOCIRCULAR

关于 GSAT-2

正在加载描述...

实时位置

正在加载3D地球...

即将过境

高度历史

Altitude vs Time

uPlot chart will show altitude changes over time

两行轨道根数

1 27807U 03018A 26062.49740799 -.00000216 00000-0 00000+0 0 9990
2 27807 10.9709 42.5933 0011488 334.5784 60.0648 0.99842674 83389
Epoch: Mar 3, 2026 • Age: 35 hours

当前状态

高度 35874.8 km
速度 3.07 km/s
星下点 4.37°N, 95.12°E
发射日期 May 8, 2003
运行时间 22.8 years
类型 other

技术详情

分类 Payload
质量 1800.00 kg
干质量 840.00 kg
总质量 1800.00 kg
长度 2.40 m
直径 1.60 m
跨度 9.60 m
形状 Box + 2 Pan
制造商 ISRO
平台类型 I2K
阶段状态 In Orbit
所有者/国家 ISRO/IN

大型星座

Loading constellations...